Theta_e
308 308 307 308 308 308 308 309 310 310 311 312 311 311 313 312 310 311 313 312 312 313 311 309 309 309 310 310 309 308 308 307 307 307 308 308 308 309 309 310 310 310 310 311 311 313 314 314 314 315 318 320 321 320 320 319 317 316 316 316 316 316 315 315 314 312 312 312 311 311 310 310 309 307 305 304 304 304 304 303 303 303 303 303 303 303 303
308 307 308 308 308 308 308 308 309 309 310 311 311 311 311 310 311 312 312 312 312 310 309 309 309 308 308 308 308 307 307 308 309 309 309 309 309 309 309 310 310 310 310 310 311 312 313 314 315 314 315 319 322 322 322 320 318 317 316 316 316 316 316 315 314 313 313 312 312 311 310 309 308 307 305 304 304 304 304 303 303 303 303 303 303 303 302
309 307 308 308 307 308 308 308 308 308 309 310 309 309 310 309 310 311 312 312 311 308 307 308 308 307 307 307 307 308 308 309 310 310 310 310 310 309 309 309 309 309 309 309 309 310 310 312 313 313 314 318 321 321 321 321 320 319 318 317 317 316 316 315 314 313 313 313 312 311 310 310 308 306 305 304 304 304 304 303 303 303 303 303 303 302 302
309 307 307 308 308 309 308 307 308 308 309 310 310 310 310 309 309 310 310 310 309 307 306 307 307 307 306 307 308 309 310 310 310 310 310 309 309 308 308 308 308 308 308 309 309 309 310 310 311 312 312 315 318 319 320 320 319 319 319 319 319 317 316 315 314 314 313 313 312 311 310 309 308 305 305 305 304 304 304 304 303 303 302 302 302 302 302
308 306 307 309 309 308 307 309 312 310 308 310 309 310 312 310 309 310 310 310 309 308 307 308 309 308 307 308 309 310 310 310 309 309 308 307 308 308 309 310 310 310 309 309 309 310 311 311 311 311 311 312 314 316 317 317 317 317 319 319 318 317 315 315 314 314 313 312 311 310 309 308 306 306 305 305 304 304 304 303 302 302 302 302 302 302 301
307 307 307 309 308 306 306 309 312 310 309 310 309 309 311 311 310 311 310 309 309 309 309 309 310 309 309 309 309 309 309 309 309 308 308 308 309 310 310 310 310 310 309 308 309 310 311 310 310 310 311 311 312 314 315 316 316 316 317 317 317 316 315 314 314 313 312 311 310 309 308 307 306 306 305 305 304 304 303 302 302 302 302 302 302 301 301
308 307 307 307 306 306 306 308 311 309 309 311 310 310 311 311 311 311 310 309 310 309 309 309 309 309 309 309 309 309 309 309 309 308 308 309 309 309 309 309 309 309 308 307 307 307 308 308 309 310 311 311 312 313 314 315 315 315 315 316 315 314 314 314 313 312 311 310 309 309 308 306 306 305 305 305 304 304 303 303 302 302 302 302 301 301 300
307 306 306 306 305 306 307 309 311 310 310 313 312 311 312 311 311 311 310 310 309 308 307 308 308 308 308 308 308 308 308 308 308 308 308 308 308 308 308 309 309 308 308 307 307 308 309 310 310 311 312 312 313 313 314 314 314 314 315 314 312 312 313 312 311 311 310 309 309 308 306 305 305 305 305 304 304 303 303 303 302 302 301 301 300 300 299
307 306 307 307 306 306 306 308 312 311 312 313 312 311 312 311 309 309 309 310 309 307 307 307 306 306 307 307 307 307 307 308 308 307 307 307 307 308 308 308 308 308 308 308 309 310 311 312 312 312 312 313 313 313 313 313 313 313 314 312 310 311 311 310 310 310 310 309 308 306 305 304 305 305 304 304 303 303 303 302 302 301 300 299 299 299 298
308 308 307 307 307 306 307 310 313 311 310 311 310 310 311 310 307 307 308 309 308 307 306 306 305 306 307 307 306 306 307 307 307 307 307 307 307 307 307 308 308 308 308 309 309 310 310 311 312 312 312 314 314 313 313 313 313 314 313 311 309 310 310 310 310 309 309 308 306 304 304 305 305 304 304 303 303 303 302 301 300 299 298 298 298 297 296
308 308 307 306 306 306 307 311 312 309 307 309 309 309 309 307 305 305 306 307 307 307 306 306 305 306 307 306 305 305 305 306 306 307 307 307 307 308 308 308 308 308 308 308 309 311 312 312 312 311 312 314 314 313 313 313 313 313 312 310 309 310 310 309 309 309 308 306 304 304 304 304 304 303 303 302 302 301 300 299 298 298 298 297 296 295 294
307 308 307 306 306 306 308 309 309 307 306 307 308 307 307 306 304 305 305 306 306 306 306 306 306 307 307 305 304 305 305 305 306 307 307 307 308 307 308 307 307 307 308 308 310 312 312 313 312 312 312 313 313 313 313 313 313 312 310 309 310 310 309 309 308 307 306 304 303 303 303 303 302 302 301 300 300 299 299 298 298 298 297 295 294 294 294
307 307 307 306 306 307 308 308 307 306 306 306 307 308 308 305 303 304 305 305 305 306 306 307 307 307 306 305 306 306 306 306 307 307 307 307 307 307 307 306 306 307 308 309 310 311 312 312 313 313 313 313 312 312 312 311 310 309 309 309 309 309 308 307 306 305 303 303 303 303 303 301 300 300 299 299 299 299 299 299 299 298 296 294 294 294 294
308 308 307 306 306 306 306 306 305 305 306 307 307 307 306 304 303 304 305 305 305 305 306 306 306 306 306 306 306 306 306 307 307 307 307 307 306 307 306 306 307 308 308 309 310 311 311 311 311 311 312 312 311 310 310 309 308 308 308 308 308 307 306 305 305 303 302 303 303 302 301 300 299 299 299 299 299 299 299 298 298 297 296 295 295 295 294
306 306 305 304 304 304 304 304 304 305 307 308 306 304 303 303 303 304 304 304 305 305 305 305 304 305 305 305 306 306 306 306 306 306 306 306 306 307 306 307 308 308 307 308 310 310 310 310 309 308 310 311 310 309 308 308 307 308 308 307 306 306 305 304 303 302 301 301 301 300 300 299 299 298 298 298 298 298 298 298 298 297 296 295 295 294 294
304 304 304 303 303 302 303 304 304 305 306 305 304 303 304 303 303 304 304 304 304 305 305 304 304 304 305 305 306 306 306 306 305 305 305 305 306 307 306 307 307 307 306 306 307 307 307 308 307 307 309 309 309 309 307 306 307 307 306 306 305 304 303 302 301 301 301 301 300 300 299 299 298 298 298 298 298 298 298 297 297 296 296 295 294 294 293
302 302 302 302 301 301 302 303 303 303 302 302 304 305 304 303 303 304 304 304 304 305 305 305 304 304 305 305 306 305 305 305 304 304 305 306 306 306 305 306 306 306 306 306 306 306 307 307 306 307 308 308 308 307 306 305 306 305 305 305 304 303 302 302 301 301 301 300 299 299 299 298 298 298 298 298 298 297 297 296 296 296 295 295 294 293 292
301 300 301 301 301 301 301 301 301 301 302 303 303 304 304 304 304 304 304 304 304 304 304 304 304 303 304 305 305 305 305 304 303 304 305 306 306 305 305 305 306 306 306 305 305 306 307 307 307 307 308 307 306 305 305 305 305 305 305 305 304 303 302 301 301 300 300 299 299 299 299 299 299 299 298 298 297 297 296 296 296 295 295 294 294 293 291
301 301 301 300 300 300 301 301 301 301 301 302 302 302 303 303 303 303 303 303 304 304 304 304 304 304 304 305 305 304 304 303 303 305 306 306 306 305 305 306 306 306 306 305 305 306 307 308 308 307 307 307 306 305 305 306 306 306 305 304 303 302 301 301 300 299 299 299 299 299 299 299 299 299 298 297 297 296 296 296 295 295 295 294 294 292 291
300 300 300 299 299 300 300 301 301 301 301 301 301 301 302 303 304 304 304 304 304 304 304 304 305 305 305 304 304 304 303 302 303 305 306 305 305 305 305 306 305 305 306 306 306 307 307 308 307 307 306 306 306 305 306 306 306 306 304 302 302 301 300 300 300 299 299 299 299 299 299 299 299 299 298 297 296 296 296 295 295 295 294 294 294 292 291
299 300 300 300 300 299 299 300 300 300 300 301 301 302 302 303 303 303 303 303 303 304 304 305 305 305 304 304 303 303 302 302 303 304 305 305 305 304 305 305 305 306 307 307 307 307 307 307 307 306 305 305 306 306 306 306 305 304 302 302 301 301 300 300 300 300 300 300 299 299 299 299 299 299 298 297 296 296 296 294 294 294 294 295 294 292 291
300 300 300 300 300 300 299 299 300 300 300 300 301 302 302 301 301 301 301 302 303 303 303 304 304 304 304 303 303 302 302 303 303 304 305 305 305 304 304 305 305 306 306 307 307 307 306 307 307 306 304 304 305 306 305 305 303 302 302 301 301 301 300 300 300 300 300 300 300 299 299 299 299 298 298 297 297 296 295 294 293 294 294 294 293 291 291
300 299 299 299 300 300 299 300 300 300 300 301 301 301 301 301 300 301 302 303 303 303 303 303 304 304 303 302 302 302 302 303 303 304 304 304 304 303 304 304 305 306 306 307 307 306 305 306 306 305 304 304 304 304 304 303 302 302 301 301 301 301 301 301 301 300 300 300 300 300 299 299 298 298 298 297 297 296 294 293 293 294 294 294 292 290 291
298 298 299 299 299 299 299 300 300 300 300 301 301 302 302 302 302 302 303 303 303 303 303 304 304 303 303 302 302 302 302 303 303 304 304 303 303 303 303 304 305 306 306 306 306 306 305 305 305 304 304 303 303 304 303 302 302 302 301 301 301 301 301 301 301 301 300 300 300 300 299 299 298 298 297 297 296 295 294 293 294 294 294 292 291 290 290
298 298 299 299 299 299 299 300 300 301 301 301 301 302 302 302 301 302 303 303 303 303 303 304 304 303 302 302 302 302 302 303 303 303 303 303 303 304 304 305 305 306 306 307 307 306 305 304 304 304 303 303 303 303 303 302 302 302 302 302 301 301 301 301 301 301 301 300 300 300 299 298 298 298 298 297 296 294 293 293 294 294 293 291 291 290 290
298 298 299 299 299 299 299 300 300 300 300 301 302 302 302 301 301 301 302 303 303 303 303 304 304 303 302 302 302 302 302 302 302 303 304 304 304 305 305 305 306 306 306 307 307 306 305 304 304 304 303 303 303 303 302 302 302 302 302 302 301 301 301 301 301 301 300 300 300 300 299 298 298 298 297 297 295 293 293 294 295 294 293 292 290 290 290
299 299 299 300 299 299 299 300 300 300 300 301 302 301 302 301 301 301 302 302 302 303 303 304 303 302 302 302 302 302 302 302 303 304 305 305 305 305 305 305 305 306 306 306 306 305 305 304 304 304 303 303 303 303 303 302 302 303 303 302 302 301 301 301 300 300 300 300 300 300 299 298 298 298 297 296 294 293 293 294 294 294 294 293 291 289 290
299 299 299 299 299 299 299 299 299 300 301 302 302 302 302 302 302 302 302 302 302 303 303 303 303 302 302 302 301 301 302 303 304 304 304 304 305 305 305 305 305 305 306 305 305 304 304 303 303 303 303 303 303 303 303 303 302 302 302 301 301 301 301 300 300 300 300 300 300 300 299 298 298 298 296 295 295 294 294 294 294 294 294 293 291 290 290
299 299 299 299 299 300 300 300 300 301 301 302 302 302 302 302 302 303 302 302 302 303 303 303 302 302 302 301 301 302 303 303 303 303 304 304 304 304 304 304 304 304 304 304 304 303 303 303 303 303 303 303 303 303 303 303 302 302 302 302 301 301 300 300 300 300 300 300 300 300 299 298 298 298 296 295 295 295 295 295 295 295 294 292 291 290 290
299 299 299 300 300 301 301 301 301 301 301 301 301 301 301 302 302 302 303 302 302 303 303 302 302 302 302 301 301 302 302 302 302 303 303 304 304 304 304 304 304 304 304 304 304 304 304 303 303 303 303 303 302 303 303 302 302 302 302 301 301 300 300 300 300 301 301 301 300 300 299 298 298 297 296 295 295 296 296 295 295 295 294 293 292 291 290
299 299 300 300 300 300 300 300 300 300 300 300 300 300 300 301 301 302 303 303 303 303 302 302 302 302 302 302 301 302 302 302 302 303 303 304 304 304 304 304 304 304 304 304 303 304 303 303 303 303 303 303 303 302 302 302 302 302 302 301 301 301 301 301 301 301 301 301 301 300 299 298 298 297 296 296 296 296 296 296 295 295 294 294 293 293 291
300 300 300 300 300 300 299 299 299 299 299 298 299 299 299 300 301 302 302 303 304 303 302 302 302 301 301 302 302 302 302 302 302 302 302 303 303 304 304 304 304 304 303 303 303 303 303 303 303 303 303 303 303 303 302 302 302 302 301 301 301 301 301 301 301 301 301 301 301 300 299 298 298 297 296 296 296 296 296 296 295 295 295 294 294 294 292
300 299 299 299 298 298 298 298 298 297 297 298 299 299 299 300 301 302 303 303 303 303 302 301 301 301 301 302 302 302 302 301 301 301 301 301 302 302 303 303 303 303 303 303 303 303 303 303 303 303 303 303 303 303 302 302 302 302 302 302 302 302 302 302 301 301 301 301 299 299 299 298 298 297 297 296 296 296 296 296 295 295 295 295 294 294 294
299 298 297 297 297 296 296 297 297 297 297 299 300 301 301 301 302 302 302 302 302 301 301 301 301 301 301 301 301 301 301 301 300 300 299 299 300 300 301 302 302 303 303 302 302 302 302 301 301 302 302 302 303 302 302 302 302 302 302 302 302 302 302 302 302 302 301 300 299 299 299 298 297 297 297 297 297 297 296 296 296 295 295 295 294 294 294
297 296 296 295 295 295 295 296 296 297 298 299 300 301 301 302 302 301 301 301 301 300 300 300 301 301 300 300 299 299 299 299 299 299 298 298 298 299 300 301 301 301 301 301 301 301 301 300 300 301 301 302 302 302 302 302 302 302 302 302 302 301 301 301 301 301 301 300 299 299 298 298 297 297 297 297 297 297 296 296 296 296 295 295 295 294 294
296 295 294 294 294 295 295 296 297 298 298 299 300 301 301 301 301 301 301 301 300 300 300 300 300 300 299 299 298 298 298 298 298 298 297 298 298 299 299 299 299 300 300 300 300 300 300 300 300 300 301 301 301 301 302 302 302 301 301 301 301 301 301 301 300 300 300 300 299 298 297 297 298 298 298 298 298 297 297 297 297 296 295 295 295 294 294
295 294 294 295 295 295 296 296 297 298 298 299 300 300 300 301 301 301 300 300 299 299 298 299 298 298 298 298 297 297 297 297 297 297 297 296 297 297 297 297 297 297 298 298 298 298 299 299 299 299 300 300 301 301 301 301 301 301 301 301 301 301 301 301 300 300 300 300 299 298 297 297 298 298 298 298 298 298 298 297 297 296 295 295 295 295 294
294 294 295 295 295 295 296 296 297 297 297 297 298 299 299 299 300 299 299 298 298 297 297 297 297 297 297 297 297 296 296 296 296 295 295 295 295 295 294 293 293 293 293 294 296 297 298 298 298 298 299 300 300 300 300 300 301 301 301 301 301 301 300 300 300 300 300 300 299 298 298 298 298 298 298 298 298 298 298 298 297 296 295 295 295 295 294
295 295 295 295 295 295 295 295 296 296 296 297 297 297 298 298 298 298 297 297 297 297 297 297 297 297 297 296 296 295 295 294 294 294 293 293 293 293 293 292 291 291 291 292 294 296 297 297 297 297 298 298 299 300 300 300 300 300 300 300 301 300 300 300 300 300 300 300 299 298 298 298 298 298 298 298 297 297 297 297 297 297 296 295 295 295 294
295 295 295 296 296 296 296 296 295 296 296 296 296 297 297 297 297 297 297 297 297 297 297 297 297 297 296 296 295 295 294 294 294 294 294 293 293 293 293 292 292 292 291 291 292 293 295 296 297 297 297 298 298 299 299 299 299 300 300 300 300 300 300 300 300 300 300 300 299 299 298 298 298 298 298 297 297 297 297 297 297 297 297 296 296 295 294
295 295 295 295 296 296 296 296 296 296 296 296 296 296 296 297 297 297 297 297 297 297 296 296 296 296 296 295 295 295 295 295 295 294 294 294 293 293 293 292 292 292 292 291 291 292 293 294 295 296 296 297 297 297 298 298 299 299 299 299 299 299 299 299 299 299 299 299 299 299 298 298 297 297 297 297 297 297 297 297 297 297 297 296 296 295 295
295 295 295 295 295 295 295 296 296 296 296 296 296 296 297 297 297 297 297 297 297 296 296 296 296 296 295 295 295 295 295 295 295 295 294 294 294 293 293 292 292 292 292 292 291 291 291 292 292 293 293 294 294 294 296 297 297 297 298 298 299 299 299 299 298 298 298 298 298 298 298 297 296 296 296 297 297 297 297 297 297 297 297 296 296 296 295
295 295 295 295 295 294 295 295 295 295 295 296 296 296 297 297 297 296 296 296 296 296 296 296 296 296 296 296 295 295 295 295 295 294 294 293 293 292 292 291 291 291 291 291 291 291 291 291 291 291 291 291 291 292 292 293 293 294 296 297 297 298 298 298 298 298 298 298 297 297 297 297 297 296 296 296 297 297 297 297 298 297 297 296 296 295 295
294 295 295 295 295 295 295 295 295 295 295 295 295 295 296 296 296 296 296 296 296 296 296 296 296 296 296 295 295 295 295 295 294 294 294 293 292 292 291 290 290 291 291 290 290 291 291 291 291 290 291 291 291 291 291 291 291 292 293 294 295 295 296 297 297 298 298 298 298 298 298 298 297 297 297 297 298 298 298 298 298 298 297 296 296 295 295
294 294 294 294 294 294 294 295 295 295 295 295 295 295 295 295 295 295 296 296 295 295 295 295 295 295 295 294 294 294 294 294 294 294 294 294 292 291 290 289 290 290 290 290 290 290 290 290 290 290 290 290 290 290 290 291 291 291 291 292 293 293 294 294 295 296 296 296 297 297 297 297 297 297 297 297 298 298 298 298 298 298 298 297 297 296 295
294 294 294 293 293 293 293 293 293 293 294 294 294 294 294 294 294 294 295 295 294 294 294 294 294 294 294 293 293 293 293 293 293 294 294 293 292 290 289 289 289 289 290 290 290 290 289 289 289 289 289 290 290 290 290 290 290 291 291 291 292 292 293 293 294 294 294 294 294 295 295 295 296 296 296 297 297 297 297 298 298 298 298 298 297 297 296
294 294 294 293 293 293 293 293 292 292 292 292 292 292 292 293 293 293 293 293 292 292 292 292 292 292 292 292 292 292 292 292 292 292 292 291 290 289 288 288 288 288 289 290 290 290 289 289 289 289 289 289 289 290 290 290 290 291 291 291 291 292 292 292 293 293 293 293 293 293 293 294 294 294 295 295 296 296 297 297 297 297 298 298 297 297 297
294 294 293 293 293 293 293 293 292 292 292 291 291 291 291 292 292 292 291 291 291 291 291 291 290 290 290 291 291 290 290 290 290 290 289 289 289 288 288 288 288 288 288 289 289 289 289 289 288 288 288 288 289 289 289 290 290 290 290 291 291 291 291 291 291 292 292 292 292 292 292 293 294 295 295 295 296 296 296 296 297 297 297 297 297 297 297
294 294 293 293 293 293 293 292 292 292 291 291 291 291 291 291 291 291 291 291 291 291 290 290 290 289 289 289 289 289 289 288 288 288 288 288 287 287 287 287 287 287 287 288 288 289 289 289 288 288 288 288 288 288 289 289 289 289 289 290 291 291 291 291 291 291 291 292 292 292 292 293 294 294 295 295 296 296 296 296 296 296 296 297 297 297 297
294 294 293 293 292 292 292 292 292 291 291 291 291 290 290 290 290 290 290 290 290 290 290 290 289 289 289 288 288 288 288 287 287 287 287 287 287 287 287 287 286 287 287 287 287 288 288 288 288 288 287 288 288 288 288 288 288 288 288 289 290 290 290 290 290 290 291 291 292 292 292 293 293 293 294 294 295 295 295 296 296 296 296 296 296 296 296
294 293 293 292 292 292 292 292 291 291 291 290 290 290 289 289 289 289 289 289 289 289 289 289 289 289 288 288 288 288 287 287 287 287 287 287 287 286 286 286 286 286 286 286 286 287 287 287 287 287 287 287 287 287 287 287 287 287 287 287 287 288 288 289 289 290 290 291 291 291 291 291 291 291 291 292 293 293 294 294 294 294 294 294 295 295 295
293 293 292 292 292 291 291 291 291 290 290 290 289 289 289 288 289 289 289 289 288 288 287 287 288 288 288 287 287 287 287 287 287 287 286 286 286 285 285 285 285 285 285 285 285 285 285 285 285 285 285 285 286 286 285 286 286 286 286 286 286 287 288 288 288 288 289 289 289 289 289 290 290 290 290 290 290 291 292 292 292 292 292 292 293 294 295
Wind_Speed
10 8 8 8 7 9 10 11 13 12 7 4 3 6 8 5 3 6 8 5 5 9 13 9 3 2 2 4 6 11 15 18 20 22 23 24 25 25 23 21 21 23 23 24 25 24 24 27 24 20 22 29 33 36 38 39 40 38 37 36 36 34 32 31 28 26 24 22 19 18 17 17 17 15 14 13 13 13 14 15 16 18 19 20 21 22 24
8 7 7 9 8 9 10 13 13 9 6 6 7 8 7 5 6 8 8 7 8 8 7 7 7 6 6 7 11 15 16 15 14 14 16 19 22 23 24 24 25 27 27 27 27 25 23 23 24 24 25 30 34 34 34 36 37 38 38 36 35 33 32 30 28 25 23 21 19 18 18 18 17 15 14 13 12 13 14 15 17 19 19 20 22 23 24
6 4 6 9 8 8 12 14 11 7 7 9 9 8 7 6 7 7 6 8 9 6 2 6 14 15 10 8 10 12 11 11 13 15 17 20 23 25 27 29 30 31 32 32 32 30 29 27 22 17 21 28 33 33 33 35 34 35 37 37 34 33 31 29 27 24 22 21 19 19 19 18 17 15 13 12 12 13 15 16 18 19 20 20 21 22 24
4 2 5 9 7 8 13 13 8 5 7 8 6 6 6 5 6 7 7 7 9 8 5 8 13 13 9 6 7 10 12 13 15 15 18 22 24 27 28 30 30 30 31 33 33 33 32 30 25 20 19 22 28 33 35 36 34 32 33 35 33 31 30 28 27 25 22 21 20 19 19 18 15 13 11 12 13 15 16 17 19 19 19 20 21 23 26
3 1 3 6 5 7 10 8 4 6 7 7 6 6 6 6 6 5 6 6 7 7 7 6 6 8 7 7 8 9 10 13 14 15 19 23 24 23 22 22 23 24 25 26 29 31 31 29 27 25 24 23 27 34 36 35 35 32 30 30 30 29 29 28 26 24 22 21 20 19 18 15 12 11 12 13 15 16 18 19 19 18 18 20 22 25 27
3 1 3 5 6 6 6 3 2 3 5 6 6 7 6 5 3 2 4 4 3 5 6 5 5 6 8 10 12 12 12 13 15 17 19 18 18 17 17 20 22 24 25 26 28 30 33 34 32 28 26 26 28 32 32 31 33 34 31 29 28 27 27 27 25 23 21 20 19 17 14 12 11 12 14 15 16 17 19 19 17 17 19 21 24 26 28
3 2 5 2 8 7 2 2 3 6 5 2 4 6 4 2 4 5 6 5 5 5 6 7 8 10 14 17 18 17 16 15 15 16 17 17 19 22 24 25 27 29 31 32 33 34 36 37 35 30 28 29 31 32 31 30 31 31 31 30 28 27 26 25 23 21 19 18 16 14 12 12 13 14 14 15 17 18 18 16 16 17 20 23 26 28 29
3 1 3 4 9 8 5 3 4 6 5 3 4 6 5 4 5 5 4 5 6 8 11 14 16 18 21 22 21 18 14 13 15 18 20 22 24 25 27 28 31 33 34 34 34 34 34 34 32 29 27 28 34 35 33 33 31 30 31 30 27 26 26 23 21 19 18 18 16 13 12 12 13 14 15 15 17 17 16 15 17 20 23 26 28 30 30
4 4 4 4 7 10 7 3 1 1 1 2 3 1 5 5 5 5 5 5 7 9 12 16 19 21 20 17 18 17 14 14 20 24 25 27 28 28 30 32 34 36 36 34 33 33 32 32 32 30 27 29 38 39 37 37 33 31 32 29 26 27 26 23 21 20 19 17 14 11 11 12 13 14 14 15 15 15 16 18 21 24 26 27 28 29 31
5 4 4 3 5 8 4 1 1 4 8 8 7 3 3 4 7 9 6 4 4 6 9 14 17 17 12 7 12 18 18 19 25 28 29 31 30 30 32 34 36 37 36 36 35 33 32 32 32 32 28 28 38 41 40 38 36 35 34 29 27 29 28 24 22 20 18 15 11 9 10 11 12 13 13 14 15 17 20 22 24 24 25 26 27 28 29
4 5 5 4 5 6 3 4 3 5 10 10 7 4 4 4 4 8 5 3 5 6 9 12 11 9 6 5 12 22 26 26 27 28 29 29 28 28 31 32 34 36 36 36 34 31 31 32 32 31 28 28 34 36 38 39 39 38 34 29 30 31 28 24 22 19 15 11 9 10 11 12 13 13 15 16 18 20 22 22 22 22 24 26 27 27 29
5 4 4 3 3 2 2 4 4 6 8 7 6 3 5 5 4 5 2 2 6 9 11 10 5 2 5 9 18 28 30 28 28 27 28 29 28 30 33 35 35 36 34 33 29 25 25 28 29 28 28 30 31 34 38 40 37 35 31 30 31 28 24 23 21 17 13 10 9 10 10 11 12 13 14 15 17 18 19 19 20 22 24 26 26 27 30
6 5 4 3 2 1 2 1 4 6 5 4 2 3 6 5 7 8 5 4 7 10 10 8 6 8 13 17 25 30 28 27 28 27 27 29 30 32 36 37 35 32 29 26 23 18 14 14 15 18 27 32 32 34 39 38 34 33 33 32 30 26 24 24 20 14 10 8 8 7 8 9 9 10 11 12 14 16 18 19 21 23 25 27 27 29 31
4 4 3 3 2 1 2 3 3 2 2 1 3 4 4 6 8 9 8 8 9 10 11 10 11 16 19 21 24 27 26 27 28 27 27 30 32 34 37 36 30 24 22 23 21 15 9 7 11 14 22 30 31 30 32 33 31 32 33 31 28 26 24 21 15 10 7 6 5 5 6 7 9 11 11 13 15 17 18 20 21 24 27 29 29 30 32
1 0 1 1 1 1 4 3 1 2 2 4 8 8 8 8 9 8 9 10 10 12 15 17 19 21 22 23 24 26 27 26 26 27 28 30 33 35 36 31 23 18 19 19 15 11 8 6 12 15 16 23 30 30 29 31 30 29 29 27 25 23 19 14 11 7 5 2 2 3 5 7 9 10 12 13 16 17 18 20 23 26 28 28 29 31 33
1 2 2 1 2 3 3 3 2 3 6 12 13 8 7 10 8 7 9 13 14 15 17 19 22 22 23 24 23 24 26 26 27 29 29 29 32 34 31 25 18 15 13 7 3 3 4 5 12 12 12 20 30 31 30 31 30 28 27 24 21 17 14 10 7 4 3 2 0 2 4 6 7 9 11 12 14 16 18 21 25 26 26 27 28 31 36
1 2 4 5 9 12 9 7 10 12 14 16 12 9 9 12 11 10 12 16 17 16 16 19 22 23 23 23 23 24 26 27 29 29 28 28 30 28 23 18 14 11 6 3 1 4 5 5 6 8 11 21 29 31 30 30 28 26 24 19 15 12 10 8 7 4 4 5 2 0 2 5 7 9 10 10 12 15 20 23 24 24 25 26 28 32 39
4 5 5 7 12 17 19 20 20 17 15 14 11 11 13 15 15 15 16 17 17 16 17 20 24 24 24 23 22 24 26 28 29 27 25 27 26 20 15 12 10 6 4 3 10 13 12 12 8 11 18 25 31 34 32 28 24 21 17 12 10 10 10 9 8 7 6 4 2 2 5 6 6 7 9 10 13 17 20 22 22 22 25 27 29 34 42
5 4 5 7 11 16 20 20 18 16 14 13 14 15 15 16 18 18 17 17 18 18 19 21 24 23 22 21 23 26 27 27 27 24 23 24 23 17 12 10 8 7 7 11 14 10 9 11 12 18 23 27 31 32 28 23 19 15 11 11 12 12 12 11 9 6 5 3 2 2 5 5 4 7 12 13 13 16 18 19 21 23 25 27 29 37 45
4 6 10 13 16 19 18 15 17 19 19 17 17 15 14 15 16 17 18 20 21 21 21 21 21 21 20 21 24 26 26 25 24 21 19 19 19 16 13 10 8 11 13 15 12 8 7 7 15 23 26 29 30 27 23 19 15 12 12 14 15 14 13 11 7 4 5 4 3 3 3 3 5 10 14 12 11 15 18 20 22 23 24 26 30 38 45
6 8 10 12 16 18 18 17 19 21 21 20 18 13 12 15 16 18 20 22 22 22 22 21 20 20 20 22 25 25 24 23 21 19 17 15 14 14 15 13 11 12 13 13 10 10 8 9 21 27 28 29 27 22 19 17 14 13 14 14 13 12 14 11 6 6 6 5 3 2 3 5 7 13 16 13 11 16 20 21 22 22 24 26 31 38 43
4 5 7 8 8 9 14 17 19 20 21 21 18 15 15 18 20 20 21 20 19 21 21 20 20 21 22 24 24 22 20 19 19 18 16 13 11 10 10 9 9 9 10 12 10 10 9 14 24 28 28 27 23 20 18 16 15 15 15 13 11 12 14 9 6 7 8 6 2 2 5 7 9 14 17 14 14 17 20 21 21 22 25 27 32 38 41
6 10 14 15 12 11 16 20 21 21 22 22 20 20 21 22 21 19 17 16 18 20 20 18 18 20 23 24 21 18 18 18 16 13 10 7 6 5 4 7 10 7 6 7 7 8 12 21 29 30 29 26 22 19 17 16 16 16 15 14 13 13 12 6 5 6 7 4 1 5 8 9 11 15 14 12 14 19 20 21 21 23 26 28 31 36 39
13 17 20 19 14 13 18 22 22 22 23 24 23 21 19 19 18 16 14 15 19 21 20 18 19 21 23 21 18 17 18 15 10 7 6 5 6 6 7 11 11 6 2 5 9 11 17 29 35 32 29 26 21 17 17 18 19 17 14 14 14 11 8 5 4 5 5 4 4 6 9 11 12 12 9 9 16 21 20 20 22 24 26 28 31 34 38
19 21 20 17 16 18 21 22 23 23 23 24 22 18 17 19 20 18 15 16 19 20 19 19 20 20 19 17 15 15 14 9 6 7 8 7 7 7 8 9 6 4 5 11 14 14 21 32 34 30 28 26 19 15 16 18 17 15 14 15 13 9 8 7 7 7 7 6 5 7 11 12 12 10 8 12 19 22 21 20 22 25 27 28 30 34 37
22 22 21 19 20 23 21 19 20 21 20 21 21 21 22 24 23 20 17 16 16 17 17 18 19 18 15 12 11 10 8 6 8 11 7 5 4 2 0 1 2 5 6 11 14 13 20 30 31 26 25 22 17 16 16 15 13 13 14 13 9 7 8 8 7 5 6 6 6 8 11 10 8 8 11 17 22 23 22 22 23 25 27 28 30 33 37
21 21 19 15 16 20 21 19 20 22 20 20 22 23 23 21 19 19 19 17 15 15 16 18 18 14 10 8 6 3 4 7 10 9 3 2 2 5 6 6 7 10 11 13 15 18 22 28 28 25 22 18 15 15 15 14 13 11 9 6 4 4 5 6 4 2 6 8 8 8 8 6 5 8 15 21 23 22 22 22 24 26 28 29 30 33 36
21 20 16 12 13 19 22 22 21 20 18 18 19 19 18 17 15 16 17 16 16 17 18 16 13 8 6 5 3 2 6 8 7 3 1 3 8 13 14 12 14 19 19 18 19 21 25 27 25 23 19 15 13 11 10 11 10 7 3 2 3 2 3 5 3 2 7 9 9 8 7 5 5 10 16 21 23 21 20 21 23 26 27 28 30 32 35
19 17 16 16 17 19 20 21 20 17 16 16 15 14 14 14 14 14 14 14 16 17 16 11 7 4 6 3 2 5 7 8 6 5 8 12 18 21 21 18 20 23 24 22 20 20 22 24 23 21 17 13 11 10 9 9 8 5 4 3 4 5 6 5 1 5 9 9 9 7 6 5 7 11 16 19 21 21 21 21 23 24 25 27 30 33 35
17 16 17 17 16 13 13 14 13 12 11 11 11 12 12 11 11 12 12 12 13 12 10 5 3 4 6 3 5 5 7 12 11 11 14 17 20 22 20 19 20 23 23 23 21 21 21 21 20 19 15 11 10 11 12 11 10 7 6 6 6 6 5 1 6 8 8 8 8 7 6 7 9 13 16 17 19 22 23 22 22 22 23 26 30 34 36
17 14 11 9 8 7 8 9 9 9 9 10 11 13 13 11 10 11 11 10 8 9 8 3 2 5 5 3 4 6 13 17 16 15 17 18 21 22 21 20 21 22 21 18 16 16 17 17 16 14 10 8 9 11 12 11 8 6 5 4 2 1 3 7 8 7 7 8 7 5 5 7 10 13 16 16 17 21 23 22 20 20 22 25 30 33 35
12 7 3 3 4 5 6 8 9 10 11 11 13 15 13 10 11 12 10 8 7 8 6 3 4 7 6 7 11 16 20 19 19 21 24 24 25 25 26 26 25 23 21 17 15 14 13 12 12 10 7 4 5 6 7 7 5 3 1 1 3 4 6 7 6 6 9 10 6 3 4 7 8 11 13 14 16 19 21 21 19 20 22 24 27 32 34
1 2 4 6 7 7 9 10 10 11 12 11 12 13 11 8 8 9 7 6 5 5 5 6 7 8 10 14 19 24 26 26 27 29 30 30 27 26 26 27 26 25 23 21 18 16 13 10 9 8 6 4 3 3 3 3 3 3 3 4 4 4 5 5 4 6 8 7 7 8 7 7 7 9 11 12 13 17 20 19 18 19 22 24 26 29 32
7 7 5 5 6 7 8 8 9 10 10 9 9 8 5 4 2 1 2 3 3 4 7 9 12 16 18 20 22 26 29 30 31 31 30 30 29 27 26 26 25 25 25 24 22 20 18 15 12 9 6 4 3 3 2 2 3 2 3 5 6 7 6 5 4 6 5 6 10 10 9 7 7 9 11 11 12 14 17 19 19 19 21 24 26 28 31
7 6 6 6 7 6 5 5 5 6 6 8 10 8 4 6 9 10 10 8 7 8 11 16 20 22 23 22 24 28 31 32 31 31 29 29 29 28 27 27 26 25 24 24 23 21 19 16 13 10 8 7 6 5 4 4 5 8 9 8 8 9 9 9 8 6 5 8 9 9 8 9 10 11 11 12 13 13 14 16 19 19 21 24 26 28 30
9 9 10 10 9 6 4 3 2 4 7 11 13 14 15 17 18 16 13 11 11 15 19 22 23 24 24 25 28 31 33 32 31 30 29 27 27 26 26 27 26 25 25 24 22 19 17 15 13 10 10 10 11 11 10 10 10 10 9 7 6 7 8 11 13 12 10 10 9 8 9 9 9 10 11 13 15 14 12 13 16 18 20 24 26 26 29
13 12 12 12 10 9 9 9 9 10 14 16 17 19 21 21 19 16 15 18 22 25 27 27 26 26 28 29 30 32 32 31 29 28 27 26 25 26 26 26 25 24 23 22 19 15 13 13 12 10 10 12 13 14 13 12 11 10 9 9 10 9 8 9 11 11 10 8 8 8 8 6 6 8 11 12 14 15 16 16 16 17 20 24 25 24 27
15 15 15 15 15 15 16 18 20 20 22 24 23 24 25 26 25 26 27 29 30 30 29 28 30 31 32 32 31 31 31 30 28 27 26 25 24 25 27 28 26 25 24 20 15 12 11 12 12 12 12 13 14 14 13 11 9 8 8 8 9 11 11 11 10 8 7 7 7 6 4 3 5 8 9 10 12 15 16 17 16 16 18 22 23 23 24
17 19 19 20 21 22 23 25 27 28 30 31 31 30 30 30 31 31 30 28 27 27 26 27 29 32 32 31 30 30 29 29 28 28 28 27 27 28 29 29 26 25 22 17 13 12 12 12 12 15 16 17 16 16 14 11 8 6 6 6 7 7 8 7 6 5 6 7 7 6 3 2 5 7 8 9 11 14 15 14 13 13 14 16 18 19 20
16 17 19 21 24 26 28 29 30 32 34 35 35 34 34 34 34 34 32 31 31 31 29 28 30 31 30 29 28 28 28 28 28 28 28 28 27 28 28 27 24 22 19 16 13 11 10 9 10 13 15 17 17 15 13 11 8 6 5 5 4 4 4 3 3 2 3 3 5 5 4 3 5 6 7 8 11 14 15 14 13 10 10 11 14 16 17
15 15 16 18 20 23 27 29 30 32 34 36 37 37 36 37 38 38 38 37 36 35 34 33 33 31 29 27 27 26 26 26 25 24 24 25 25 26 26 25 23 20 18 16 13 11 8 6 6 7 9 10 11 10 8 6 6 5 4 4 4 4 5 6 6 4 3 2 2 2 3 4 5 6 6 8 11 14 16 16 14 12 11 11 12 14 15
14 15 16 17 18 20 22 25 27 29 31 33 34 35 35 35 36 36 36 34 33 33 33 32 31 30 27 26 25 23 22 22 22 22 22 23 23 23 23 22 20 18 17 15 13 11 9 7 6 5 6 7 8 7 6 4 4 4 4 4 5 7 7 8 9 9 8 7 5 4 3 4 5 6 8 9 11 14 16 17 17 15 14 12 12 12 13
16 15 16 17 18 19 20 21 23 24 26 27 28 28 29 29 29 29 29 29 28 28 27 26 25 25 23 22 21 20 19 17 17 18 19 19 19 19 20 18 16 16 16 14 12 11 9 7 7 6 7 7 8 8 7 6 5 5 6 6 7 7 7 7 8 9 9 9 9 8 6 6 6 7 9 10 12 13 15 16 17 17 16 14 12 12 11
21 21 20 19 18 18 19 20 20 21 22 22 22 22 22 23 23 23 23 23 22 21 20 20 20 20 19 18 17 16 14 13 12 12 13 14 16 18 18 16 15 15 14 13 12 10 8 8 8 7 8 8 8 7 6 6 6 6 7 7 7 7 7 7 7 8 9 10 10 10 9 9 8 9 9 10 11 12 13 14 15 17 17 15 14 12 11
20 21 22 22 22 21 21 21 21 21 20 19 18 18 18 18 17 17 17 17 18 18 17 15 15 16 17 17 16 14 11 10 9 8 8 11 15 17 17 16 15 15 14 12 11 10 9 8 8 8 8 8 7 6 6 6 6 6 6 6 6 7 7 7 7 8 8 9 9 10 10 10 10 10 11 11 12 12 13 14 15 16 17 17 16 14 12
15 17 18 20 21 21 22 23 23 23 22 22 22 21 19 17 16 15 14 14 15 16 15 14 14 14 15 15 14 11 9 9 9 8 9 11 14 15 14 13 13 13 13 11 10 10 10 9 8 8 7 7 6 6 6 6 6 6 6 6 6 6 6 7 7 7 8 8 8 9 9 9 10 11 11 12 12 13 13 13 14 15 15 16 17 16 14
13 13 13 14 15 17 18 19 20 21 21 22 23 22 20 19 18 19 18 18 18 17 16 15 13 12 11 10 10 8 7 7 8 8 9 11 12 12 12 12 11 11 12 11 10 10 11 10 8 7 7 6 5 6 6 5 5 5 5 5 5 5 6 6 6 6 7 7 8 8 8 8 9 9 10 11 11 12 13 13 14 14 15 15 16 16 15
13 13 12 12 13 13 13 14 15 17 18 19 19 18 17 17 17 18 18 17 16 16 16 16 15 13 10 8 7 7 6 6 7 7 7 9 10 11 11 10 9 8 10 12 11 11 11 10 9 7 6 5 5 5 5 4 4 5 4 4 5 5 5 5 6 6 6 6 7 7 7 8 8 9 9 10 11 12 12 13 14 14 14 14 15 15 16
13 13 12 12 12 12 13 15 16 15 14 13 13 13 12 11 12 14 14 13 11 10 10 11 11 12 12 11 10 9 9 8 8 7 7 8 9 10 10 9 7 5 8 12 13 13 12 11 9 7 5 6 6 6 5 5 5 4 4 4 4 5 6 6 6 6 6 6 6 6 7 7 8 8 9 10 10 11 11 12 13 14 14 14 14 14 15
11 11 11 12 12 12 13 14 15 15 13 11 9 9 8 8 9 11 11 11 10 10 9 7 5 5 7 9 9 9 10 9 8 7 7 8 9 9 9 8 8 7 8 11 14 14 13 12 11 8 7 7 7 7 6 6 6 5 4 4 4 4 5 6 6 6 6 6 6 6 7 7 7 8 9 10 10 11 11 12 13 13 14 14 15 15 15
8 9 9 8 8 7 8 8 10 11 12 11 9 8 8 7 7 8 7 6 8 9 8 7 4 4 5 5 5 6 7 9 9 8 7 7 7 7 8 8 10 11 11 11 12 14 14 13 12 10 9 8 8 8 7 7 7 6 6 5 5 5 5 6 6 5 5 6 6 7 7 8 8 9 10 10 11 12 12 13 13 13 14 15 16 17 16
9 10 9 7 5 4 5 5 6 6 8 9 9 9 8 6 5 4 4 3 3 3 4 4 4 5 5 4 4 4 6 7 9 9 9 8 7 7 7 8 9 11 11 12 12 13 14 13 12 11 11 10 10 10 9 8 7 7 7 6 5 5 5 5 6 6 6 6 7 7 8 8 9 9 10 10 11 12 12 13 14 14 15 15 16 16 16
Wind_Direction
247 249 261 269 263 263 269 268 270 277 296 332 310 260 255 252 242 252 254 239 228 259 282 294 328 28 300 287 311 317 313 309 305 304 302 299 302 309 316 317 314 312 312 315 315 304 282 273 270 259 242 230 222 220 219 215 212 212 214 214 214 217 220 222 224 225 226 228 229 233 237 239 242 246 250 260 272 283 294 302 304 301 300 300 300 297 293
264 258 265 273 270 273 276 268 268 285 309 299 278 268 268 263 245 247 268 280 260 252 275 304 318 319 311 314 314 305 299 301 311 324 330 329 328 328 328 325 320 318 318 319 319 316 311 299 281 262 244 227 218 216 215 212 212 214 212 212 213 215 219 221 222 221 222 224 226 228 232 236 241 246 254 264 277 290 297 300 301 301 301 300 297 295 293
278 261 262 271 272 276 276 274 281 305 300 284 277 275 279 279 271 275 305 313 290 269 277 303 300 304 311 316 317 315 313 322 337 342 337 334 331 325 319 316 315 314 312 311 312 310 310 312 306 279 248 229 220 219 214 208 207 209 209 209 210 212 215 217 217 217 218 221 224 226 229 234 238 246 256 270 283 291 293 295 300 301 297 293 290 289 290
264 191 259 275 286 289 280 279 289 287 270 266 255 247 245 240 256 282 305 303 283 275 287 290 293 306 327 347 360 357 349 349 352 348 339 331 324 318 314 312 312 311 307 306 308 308 304 304 309 306 284 254 235 228 220 211 206 206 207 208 208 209 211 212 212 213 215 218 220 223 227 231 239 250 262 275 283 286 289 292 295 295 290 286 285 285 287
281 124 268 295 340 320 285 266 232 223 239 253 259 260 252 233 227 248 264 255 258 284 313 325 324 334 346 3 14 3 346 345 343 333 326 320 314 312 313 313 312 311 307 301 300 304 304 302 304 305 297 278 251 237 228 217 205 200 202 207 207 206 207 207 206 209 212 214 217 221 227 235 246 259 267 274 279 281 285 291 294 294 289 286 284 285 287
288 33 24 346 326 284 261 233 201 257 277 276 277 281 273 256 231 225 256 267 304 346 6 19 5 348 343 340 337 334 331 328 322 320 321 320 318 320 319 315 312 310 308 304 297 296 298 300 302 302 294 278 256 240 229 213 198 192 195 202 203 203 204 203 203 206 210 214 217 222 229 240 252 261 266 271 275 281 288 294 296 291 285 283 283 285 290
271 48 68 330 268 249 242 21 333 305 303 301 298 292 291 24 24 353 334 339 3 25 28 21 8 352 341 330 322 325 329 321 319 329 336 336 333 329 324 319 314 310 308 307 301 294 293 295 297 297 290 272 251 238 226 208 192 188 192 197 199 202 205 204 203 205 208 211 214 219 230 245 255 259 263 269 276 284 291 291 284 279 278 280 285 289 294
268 303 136 210 258 278 303 323 311 298 303 19 22 319 316 19 13 344 347 358 8 16 13 10 4 352 340 329 323 331 341 336 338 343 339 336 333 328 325 320 315 314 312 308 302 296 295 294 290 289 287 265 244 234 221 203 191 190 193 194 196 199 202 201 198 199 202 204 209 219 236 249 254 256 262 272 279 282 281 274 271 274 281 287 293 296 298
224 232 212 226 280 290 288 292 321 269 191 113 94 303 299 341 22 41 48 27 13 9 1 357 353 347 344 330 320 333 344 332 329 330 326 325 326 323 320 315 313 314 311 305 301 297 294 290 283 283 283 257 236 227 213 198 191 191 191 190 189 193 196 193 190 193 198 204 213 229 246 251 254 260 266 271 271 268 267 269 275 283 290 295 299 301 304
185 209 247 257 270 275 261 190 203 139 141 147 134 115 299 327 33 42 46 35 7 353 344 345 348 348 350 323 304 316 317 311 316 320 317 317 318 315 312 310 310 312 308 304 304 300 294 287 278 277 272 242 220 211 200 190 186 185 184 183 185 189 190 187 189 197 203 210 223 236 244 247 251 257 261 263 266 269 273 279 285 292 297 301 305 310 315
181 192 231 227 239 261 219 171 187 138 139 147 120 65 303 283 14 22 30 16 342 331 325 334 349 354 339 292 295 304 306 307 312 315 313 312 311 307 305 306 308 307 306 306 306 302 294 287 278 271 256 223 204 198 188 181 179 179 178 180 184 186 187 189 195 203 207 215 229 233 235 242 249 257 264 270 275 278 281 287 292 298 305 310 314 320 327
227 208 235 244 244 271 93 119 136 134 136 120 75 19 272 259 302 320 322 311 312 312 309 314 336 322 265 275 296 305 308 309 307 309 310 308 307 305 303 305 306 304 304 304 300 296 292 284 275 262 238 211 198 195 188 179 176 177 177 180 181 181 181 185 189 194 199 211 225 231 241 252 263 273 279 281 283 286 289 293 296 302 314 323 325 327 330
238 235 249 265 245 99 49 72 149 142 116 66 64 235 248 278 304 304 310 320 316 313 304 285 259 268 278 288 299 305 308 307 305 308 308 305 305 304 303 305 307 303 300 296 289 288 287 269 249 233 218 204 193 188 181 172 169 171 172 172 171 171 172 174 178 183 189 198 214 235 258 274 290 302 304 299 296 296 294 293 296 306 320 328 328 327 329
211 200 206 243 288 240 205 202 179 134 84 101 225 254 312 338 331 333 338 334 327 320 306 288 278 284 291 295 298 301 302 303 304 306 305 304 303 301 303 308 307 297 290 285 278 276 270 219 173 171 187 189 182 175 169 164 163 165 165 163 164 167 168 168 174 181 181 190 221 257 286 311 325 328 321 308 299 294 291 293 301 312 322 326 326 325 327
218 36 239 232 311 238 197 178 79 76 155 248 274 296 323 323 320 324 318 308 305 300 296 294 291 288 289 291 293 296 299 300 302 302 303 303 301 300 304 306 299 286 284 280 268 264 266 213 160 148 158 167 167 165 161 160 162 162 161 161 161 161 160 160 165 167 162 175 259 303 326 333 334 331 322 305 294 291 293 298 309 317 322 324 325 325 325
54 356 299 217 293 291 231 192 223 247 268 287 286 282 300 304 295 281 279 285 288 287 288 294 294 291 290 291 294 298 300 300 301 301 302 300 299 301 303 297 282 277 284 280 243 257 268 184 154 150 152 158 161 160 156 155 158 156 153 152 150 147 146 147 140 118 105 128 167 328 332 336 341 340 330 310 295 295 302 310 316 320 322 323 324 325 327
56 261 264 281 307 320 326 314 302 305 313 310 291 270 289 298 288 276 278 282 282 280 283 289 291 290 290 291 295 298 298 300 302 303 302 299 298 300 296 281 267 267 255 168 161 274 248 194 151 142 155 159 155 149 147 150 150 145 144 143 140 137 138 131 113 111 158 179 192 0 16 -0 348 341 335 322 309 309 314 318 319 319 322 323 322 326 331
333 298 293 307 313 318 319 312 312 329 350 348 328 314 313 311 303 295 288 285 282 279 281 287 289 290 290 290 294 296 297 301 305 306 303 300 299 296 282 261 249 240 208 249 294 284 255 238 214 158 156 160 152 144 145 148 144 141 144 145 139 134 135 133 134 154 180 197 201 76 40 12 345 334 336 331 322 320 321 321 320 321 324 322 323 330 336
343 321 311 323 325 323 321 319 327 345 355 347 335 326 319 315 311 302 293 292 289 282 283 291 293 293 293 291 292 295 298 301 303 306 305 302 299 290 262 235 230 234 253 292 298 276 237 227 198 161 158 162 155 148 147 147 146 148 147 141 138 138 143 150 157 175 200 210 167 99 30 4 335 333 338 333 327 329 330 326 325 327 325 322 327 337 338
308 282 290 311 325 327 324 326 335 337 328 320 319 316 304 301 303 299 296 298 296 288 287 291 292 292 292 293 294 297 300 299 299 304 307 302 298 287 255 234 251 265 277 294 287 246 219 190 165 159 158 157 153 149 149 152 157 154 140 136 138 141 150 154 145 151 182 178 130 95 14 324 309 334 342 337 332 339 339 334 334 333 326 324 333 340 339
287 273 289 318 327 319 309 308 315 319 314 308 304 297 283 282 288 291 293 295 294 291 287 286 288 289 289 293 297 299 299 296 294 300 303 296 292 280 253 244 260 268 280 298 278 239 223 168 155 153 150 149 150 152 154 159 159 144 136 139 140 147 162 161 121 110 151 153 112 79 327 309 319 342 349 343 334 340 344 342 342 338 330 331 338 339 338
276 261 288 315 316 297 294 300 306 309 308 302 290 281 282 285 288 295 296 291 289 290 287 283 283 284 287 293 295 294 294 292 292 296 298 293 290 276 250 258 285 286 291 295 265 221 191 162 155 150 145 146 150 151 150 147 139 132 136 146 149 158 172 165 96 94 128 136 119 330 326 326 334 350 356 350 338 341 347 349 348 343 338 337 338 339 340
260 266 278 285 279 271 283 295 300 303 305 300 288 283 288 290 291 298 300 289 285 290 291 283 277 281 289 291 287 287 293 292 290 293 295 296 300 281 254 295 314 316 303 277 229 181 159 157 156 152 148 146 145 143 139 131 126 127 137 149 154 158 162 149 86 95 116 110 18 338 344 348 352 357 359 352 344 345 350 354 353 347 343 340 338 340 345
279 282 285 286 282 280 289 297 298 299 300 298 291 287 289 290 289 289 287 280 281 287 288 282 279 288 293 286 279 288 297 291 285 293 294 289 293 287 292 304 303 292 242 164 143 127 137 149 150 146 145 144 142 138 128 118 118 121 131 149 153 146 134 117 93 100 94 61 18 1 0 5 9 8 359 348 350 351 353 357 354 348 345 343 341 345 351
291 295 300 300 294 292 296 298 297 298 299 298 292 286 287 290 288 282 277 280 286 287 282 278 283 292 293 283 279 291 292 278 287 310 304 297 296 288 296 306 288 227 171 159 149 130 132 142 142 139 140 142 140 136 128 119 116 119 132 145 143 119 96 94 98 95 77 52 28 12 10 11 12 11 -0 351 352 354 359 0 354 349 348 347 346 349 354
294 300 305 305 299 296 295 292 290 293 298 299 295 290 289 291 290 283 276 281 291 290 278 274 282 290 289 281 281 290 286 288 322 331 331 340 342 324 319 24 149 150 141 150 149 132 132 141 140 136 138 140 132 126 126 125 126 132 140 143 130 95 88 102 107 90 54 33 11 3 9 10 3 359 359 356 355 358 3 1 352 349 352 352 351 352 355
298 299 299 302 303 299 294 289 288 289 292 295 296 295 296 296 291 281 271 270 281 283 270 269 281 287 279 267 264 285 324 332 335 340 354 61 79 107 109 100 121 131 121 115 118 120 130 140 139 134 135 137 127 120 124 133 141 146 148 143 120 98 115 136 138 57 24 21 10 2 6 10 359 0 6 7 6 7 7 0 352 352 355 355 354 355 357
303 296 287 282 287 291 293 295 296 294 290 290 291 295 301 302 296 289 280 278 282 275 261 265 284 284 245 228 240 312 345 345 339 337 119 110 100 106 109 106 112 119 115 109 112 119 123 127 127 125 128 133 130 128 136 148 151 146 120 95 98 118 175 188 187 5 4 8 14 15 17 25 18 7 9 13 15 14 12 5 360 359 359 356 356 359 1
299 294 291 286 284 286 292 297 295 288 284 287 293 299 303 303 301 298 290 287 288 276 258 261 291 259 199 164 16 348 2 17 34 86 100 94 94 101 109 109 107 109 110 108 111 115 117 117 115 113 115 125 135 140 150 154 143 119 102 120 136 146 157 160 102 5 360 7 20 26 32 40 22 5 3 7 10 12 13 8 1 360 1 360 360 2 4
287 289 291 288 286 290 299 303 302 295 294 303 310 308 306 308 312 308 300 298 294 273 251 257 293 213 173 100 11 8 62 76 87 99 97 93 95 101 108 111 107 102 100 100 102 105 111 115 113 108 107 115 124 133 146 152 142 133 140 149 144 139 136 57 346 340 349 10 30 38 40 35 16 6 6 7 5 8 11 7 358 356 2 5 6 7 6
286 288 287 284 288 303 317 324 329 326 319 317 313 304 298 300 307 310 314 311 281 236 221 234 225 181 156 73 34 85 99 99 102 104 99 94 94 97 100 103 101 95 90 91 97 100 103 107 108 107 111 118 116 120 134 143 144 148 163 168 148 51 353 342 337 336 349 3 16 34 41 30 13 6 8 8 4 6 8 4 356 355 1 6 10 10 8
277 277 291 322 332 336 340 342 339 331 320 313 308 300 291 291 302 306 306 295 251 218 205 194 175 162 132 91 91 100 103 102 100 96 93 91 92 95 97 99 99 96 93 94 98 101 102 104 103 100 105 122 129 130 136 141 142 140 133 343 337 347 350 348 347 352 357 1 16 58 49 29 12 1 1 2 3 6 6 0 356 358 3 7 10 12 11
219 78 37 8 355 349 346 345 343 335 324 319 318 309 291 286 303 304 284 258 237 215 191 174 160 135 113 106 104 100 99 98 95 91 88 89 92 96 99 100 101 100 97 94 94 95 94 92 90 85 78 85 121 157 175 199 231 271 319 344 1 13 11 6 2 357 -0 25 71 78 52 26 11 3 2 1 3 7 7 1 357 2 8 11 12 13 12
98 82 51 15 2 356 347 345 345 340 336 348 1 348 304 271 288 264 183 149 130 150 154 144 130 117 109 105 102 98 96 95 92 88 86 87 90 94 97 100 103 102 99 95 92 87 82 76 75 76 71 73 109 151 189 244 264 313 22 46 50 39 25 16 2 350 3 63 81 69 50 38 29 23 18 13 11 13 12 7 3 5 11 16 18 16 12
78 64 43 28 20 13 1 350 348 349 4 31 47 58 103 134 121 116 115 104 100 120 127 122 118 113 104 95 92 94 95 93 90 89 88 88 91 94 98 100 102 102 99 95 91 91 92 88 83 84 87 86 93 103 103 95 81 72 70 70 60 47 45 48 41 32 57 84 78 64 58 54 41 31 25 18 14 13 9 6 5 7 12 19 21 18 14
50 47 46 41 36 37 47 53 51 63 72 75 79 90 106 115 113 109 105 102 105 110 110 108 106 102 95 89 88 90 92 92 92 92 92 93 96 99 99 96 95 95 94 88 81 83 90 89 82 82 87 88 88 90 92 92 85 77 79 86 78 61 56 55 53 56 71 80 73 68 68 58 39 33 36 35 33 30 23 15 11 10 15 22 22 19 16
49 56 62 62 63 73 85 94 100 96 91 93 99 100 102 106 109 108 106 105 102 98 95 96 97 95 93 91 89 88 89 91 92 92 91 93 97 98 94 89 85 84 82 77 70 70 78 83 83 85 90 94 95 94 91 89 86 83 89 97 96 91 86 73 62 58 62 69 76 81 79 64 41 36 39 43 46 46 43 39 29 17 15 21 23 20 16
64 73 79 79 80 82 85 91 98 96 90 89 93 96 98 101 105 105 104 101 96 91 90 93 95 93 91 89 87 86 87 88 90 91 90 91 92 90 82 75 71 68 66 65 66 71 77 83 86 87 87 93 97 92 85 83 86 88 94 103 102 99 98 94 89 80 72 76 94 105 98 68 45 36 32 36 40 39 42 48 46 32 22 23 26 23 18
81 84 85 84 84 85 85 87 90 91 89 88 88 91 95 99 101 101 99 95 91 91 94 96 96 94 92 91 90 89 89 90 90 88 85 83 84 82 76 70 66 64 62 61 66 73 77 82 86 85 84 88 93 91 86 85 89 92 101 111 115 110 103 98 99 102 91 87 97 111 114 68 38 31 30 34 34 28 26 34 43 42 34 31 30 28 22
92 90 86 83 82 83 84 84 84 86 90 92 91 92 95 97 97 95 92 91 92 94 96 96 96 97 97 96 94 93 92 90 88 85 82 80 79 77 74 69 64 62 61 60 60 62 66 74 79 79 79 83 87 88 88 89 89 87 89 97 108 114 103 81 79 116 121 98 96 103 97 61 31 23 23 26 22 16 13 16 24 29 27 22 23 26 26
97 97 93 88 84 84 84 85 84 85 88 91 91 93 95 97 97 95 93 94 96 96 94 91 90 90 89 88 88 88 88 85 81 78 76 73 70 68 67 63 57 53 54 56 54 54 55 59 65 66 65 66 67 68 71 78 79 71 66 70 75 77 72 59 54 56 48 25 41 85 72 38 19 11 11 11 8 6 7 9 13 16 16 13 13 17 22
95 101 98 94 91 88 86 86 85 85 86 88 90 92 94 95 96 96 96 98 100 98 96 93 91 89 86 83 79 77 76 75 74 71 67 64 61 59 59 57 51 46 45 46 48 52 54 52 52 53 44 34 23 10 358 358 20 39 52 62 63 62 63 59 54 51 46 37 34 42 42 24 9 359 359 -0 359 358 359 0 3 8 13 16 16 14 16
92 97 98 98 96 91 87 85 84 83 83 83 85 88 91 93 94 94 94 94 94 93 93 94 93 91 89 87 83 79 74 70 66 63 61 59 56 52 50 47 43 40 39 37 37 41 46 46 45 44 37 26 13 359 352 -0 25 50 66 70 62 58 61 60 54 51 48 45 44 43 37 22 9 2 359 358 357 356 356 356 358 1 7 14 21 20 16
86 87 88 91 92 90 87 85 83 81 81 81 81 84 86 88 90 91 90 87 85 84 86 90 92 92 90 87 82 78 75 69 63 59 58 55 49 43 38 32 28 28 32 35 34 33 35 37 35 28 22 22 21 14 13 27 45 59 68 67 60 55 55 53 49 47 45 43 42 42 38 31 23 17 13 11 7 4 3 4 4 3 6 12 21 25 22
86 83 82 83 83 82 82 81 79 80 82 82 81 80 80 82 86 87 85 81 77 74 75 81 87 88 86 81 73 66 64 64 63 60 55 48 41 33 25 17 12 12 17 26 32 33 31 29 24 18 15 18 18 13 14 26 38 46 52 55 53 48 45 45 44 41 40 40 39 37 32 30 27 23 21 19 16 12 11 11 10 8 9 14 19 24 27
89 86 83 82 80 79 78 76 75 77 80 80 78 76 75 76 79 78 76 76 76 75 77 82 86 89 92 92 86 77 67 58 51 40 28 24 25 23 17 8 1 359 360 7 18 26 26 23 18 13 12 12 7 4 8 17 23 28 35 43 46 42 39 40 39 37 34 35 34 29 23 20 19 19 19 19 18 15 14 13 12 11 13 17 21 25 31
97 96 89 83 81 81 80 77 75 74 74 74 74 72 69 67 68 69 70 72 73 71 69 67 68 73 85 95 94 85 67 54 49 38 17 3 1 3 7 9 5 354 346 349 1 12 14 14 13 11 8 5 357 353 357 5 9 11 19 30 37 37 36 35 33 30 28 29 28 25 21 19 18 17 18 19 18 17 16 16 15 14 15 18 24 29 35
107 106 100 92 88 87 88 89 87 84 79 76 74 72 69 66 65 66 69 72 74 73 70 63 56 51 49 53 60 60 48 36 35 32 15 358 351 353 2 16 23 4 340 338 346 355 2 6 8 4 357 353 350 348 350 355 358 358 3 15 25 26 28 29 27 23 24 27 25 21 21 24 26 26 26 24 21 20 20 19 19 19 18 19 23 29 35
109 110 110 105 100 98 99 99 97 94 90 85 81 81 82 83 84 84 83 82 79 75 71 68 64 55 42 30 21 18 15 14 18 17 3 353 354 359 3 11 20 5 336 330 333 339 347 357 -0 354 342 341 344 345 346 346 345 346 354 7 12 11 10 13 15 13 13 17 18 16 19 25 29 30 30 29 27 27 27 26 26 26 25 24 24 27 32
117 120 117 109 105 105 105 102 98 96 95 91 82 73 74 90 106 108 101 92 84 71 58 53 56 55 41 28 13 0 356 359 6 7 355 347 352 2 5 359 352 345 336 330 328 329 337 348 353 350 344 341 341 342 343 343 345 351 357 -0 1 1 359 359 1 4 8 13 14 13 16 21 23 24 27 31 33 34 37 38 36 34 33 31 30 29 28
119 120 116 109 107 107 108 110 111 107 102 96 85 69 63 78 106 123 125 115 99 84 70 59 46 27 19 18 10 356 349 347 349 352 352 343 336 336 338 337 333 330 333 336 332 328 333 344 351 351 349 346 344 344 344 343 343 347 355 1 5 5 4 2 3 8 18 24 23 20 21 23 24 25 30 35 37 38 39 37 33 30 31 32 33 33 31
121 124 122 116 104 92 95 109 120 119 113 107 100 88 76 74 89 114 129 126 94 67 63 60 39 10 352 342 335 331 330 331 334 338 345 350 344 332 328 329 325 323 332 345 347 338 336 344 352 352 351 352 352 352 353 352 348 348 359 17 29 29 28 28 27 25 27 33 34 31 28 28 30 34 39 41 39 36 34 29 23 21 24 29 32 32 31